VK3VJP-13 Weather Reports


Display with metric or nautical units.
time (UTC)temp
F
wind
direction
speed
MPH
gust
MPH
rain 1hr
in
rain 24hr
in
rain mn
in
humidity
%
barometer
mb
20260504033806 53 317 9.0 15.0 0.00 0.00 0.00 88 1008.4
20260504033306 54 355 11.0 18.0 0.00 0.00 0.00 87 1008.4
20260504032806 54 296 10.0 22.0 0.00 0.00 0.00 85 1008.4
20260504032306 54 302 8.0 16.0 0.00 0.00 0.00 83 1008.4
20260504031806 54 344 8.0 12.0 0.00 0.00 0.00 84 1008.3
20260504031306 54 0 10.0 15.0 0.00 0.00 0.00 84 1008.3
20260504030806 54 344 10.0 17.0 0.00 0.00 0.00 84 1008.3
20260504030306 54 331 10.0 17.0 0.00 0.00 0.00 87 1008.4
20260504025806 53 321 10.0 20.0 0.00 0.00 0.00 87 1008.4
20260504025306 53 302 9.0 19.0 0.00 0.00 0.00 88 1008.5
20260504024806 53 355 7.0 16.0 0.00 0.00 0.00 87 1008.8
20260504024306 53 321 8.0 12.0 0.00 0.00 0.00 88 1008.7
20260504023806 53 315 8.0 17.0 0.00 0.00 0.00 88 1008.9
20260504023306 53 333 8.0 16.0 0.00 0.00 0.00 86 1008.9
20260504022807 53 343 8.0 15.0 0.00 0.00 0.00 85 1009.0
20260504022306 53 284 7.0 13.0 0.00 0.00 0.00 87 1009.0
20260504021806 53 306 9.0 14.0 0.00 0.00 0.00 87 1009.2
20260504021307 52 5 9.0 16.0 0.00 0.00 0.00 87 1009.3
20260504020807 52 315 8.0 15.0 0.00 0.00 0.00 86 1009.5
20260504020307 52 13 6.0 15.0 0.00 0.00 0.00 86 1009.5
20260504015807 52 15 7.0 10.0 0.00 0.00 0.00 86 1009.4
20260504014807 52 351 7.0 13.0 0.00 0.00 0.00 87 1009.6
20260504014307 52 0 7.0 15.0 0.00 0.00 0.00 87 1009.6
20260504013807 52 343 7.0 13.0 0.00 0.00 0.00 88 1009.7
20260504013307 51 0 8.0 10.0 0.00 0.00 0.00 88 1009.7
20260504012807 51 355 8.0 19.0 0.00 0.00 0.00 88 1009.9
20260504012307 51 340 8.0 15.0 0.00 0.03 0.00 88 1010.0
20260504011807 51 338 8.0 12.0 0.00 0.03 0.00 88 1010.0
20260504011307 51 334 8.0 12.0 0.00 0.03 0.00 88 1010.0
20260504010807 51 326 7.0 14.0 0.00 0.03 0.00 88 1010.0
20260504010307 51 346 7.0 12.0 0.00 0.03 0.00 88 1010.0
20260504005807 50 329 7.0 18.0 0.00 0.03 0.00 88 1010.0
20260504005307 50 15 7.0 15.0 0.00 0.03 0.00 89 1009.9
20260504004807 50 348 7.0 13.0 0.00 0.03 0.00 89 1009.9
20260504004307 49 306 7.0 16.0 0.00 0.03 0.00 90 1009.9
20260504003807 49 13 6.0 12.0 0.00 0.03 0.00 90 1009.9
20260504003307 49 39 7.0 11.0 0.00 0.03 0.00 90 1010.0
20260504002807 49 330 7.0 16.0 0.00 0.03 0.00 89 1009.9
20260504002307 49 5 7.0 13.0 0.00 0.23 0.00 89 1009.9
20260504001807 49 347 7.0 14.0 0.00 0.23 0.00 89 1009.9
20260504001307 49 47 7.0 11.0 0.00 0.23 0.00 89 1009.8
20260504000807 49 5 8.0 17.0 0.00 0.23 0.00 88 1009.8
20260504000307 49 327 7.0 16.0 0.00 0.23 0.00 89 1009.8
20260503235807 49 340 7.0 13.0 0.00 0.23 0.00 89 1009.7
20260503235307 49 338 8.0 15.0 0.00 0.23 0.00 90 1009.7
20260503234807 48 348 8.0 19.0 0.00 0.23 0.00 89 1009.7
20260503234307 48 327 8.0 16.0 0.00 0.23 0.00 89 1009.7
20260503233807 48 5 9.0 13.0 0.00 0.23 0.00 90 1009.8
20260503233307 48 329 9.0 17.0 0.00 0.23 0.00 89 1009.7
20260503232807 48 342 8.0 15.0 0.00 0.23 0.00 90 1009.7
20260503232307 48 0 9.0 18.0 0.00 0.54 0.00 89 1009.8
20260503231807 48 322 9.0 17.0 0.00 0.54 0.00 89 1009.8
20260503231307 48 340 9.0 16.0 0.00 0.54 0.00 89 1009.9
20260503230807 48 350 10.0 17.0 0.00 0.54 0.00 89 1009.7
20260503230307 48 310 10.0 19.0 0.00 0.54 0.00 89 1009.9
20260503225807 48 315 9.0 16.0 0.00 0.54 0.00 89 1009.8
20260503225307 48 0 8.0 15.0 0.00 0.54 0.00 89 1009.8
20260503224807 48 334 8.0 12.0 0.00 0.54 0.00 89 1009.9
20260503224307 48 346 8.0 13.0 0.00 0.54 0.00 89 1009.8
20260503223807 48 330 7.0 16.0 0.00 0.54 0.00 89 1009.8
20260503223307 48 312 7.0 12.0 0.00 0.54 0.00 89 1009.7
20260503222807 48 336 8.0 15.0 0.00 0.54 0.00 89 1009.7
20260503222307 48 320 7.0 16.0 0.00 0.69 0.00 89 1009.7
20260503221807 48 345 7.0 13.0 0.00 0.69 0.00 88 1009.6
20260503221307 48 5 7.0 14.0 0.00 0.69 0.00 88 1009.7
20260503220807 47 336 7.0 13.0 0.00 0.69 0.00 88 1009.6
20260503220307 47 355 7.0 12.0 0.00 0.69 0.00 88 1009.6
20260503215807 47 319 7.0 15.0 0.00 0.69 0.00 88 1009.7
20260503215307 47 329 7.0 14.0 0.00 0.69 0.00 87 1009.6
20260503214807 47 333 7.0 14.0 0.00 0.69 0.00 88 1009.7
20260503214307 47 346 6.0 14.0 0.00 0.69 0.00 88 1009.6
20260503213807 47 281 5.0 14.0 0.00 0.69 0.00 88 1009.6
20260503213307 47 40 6.0 11.0 0.00 0.69 0.00 87 1009.6
20260503212807 47 348 6.0 12.0 0.00 0.69 0.00 87 1009.6
20260503212307 47 355 7.0 14.0 0.00 0.87 0.00 87 1009.6
20260503211807 47 0 6.0 12.0 0.00 0.87 0.00 87 1009.5
20260503211307 47 348 6.0 12.0 0.00 0.87 0.00 87 1009.4
20260503210807 47 327 7.0 14.0 0.00 0.87 0.00 87 1009.3
20260503210307 47 355 7.0 14.0 0.00 0.87 0.00 87 1009.2
20260503205807 47 0 6.0 12.0 0.00 0.87 0.00 86 1009.3
20260503205307 47 350 6.0 12.0 0.00 0.87 0.00 86 1009.1
20260503204807 47 355 7.0 14.0 0.00 0.87 0.00 86 1009.2
20260503204307 47 342 7.0 17.0 0.00 0.87 0.00 86 1009.3
20260503203807 47 322 6.0 12.0 0.00 0.87 0.00 86 1009.2
20260503203307 47 5 6.0 15.0 0.00 0.87 0.00 85 1009.3
20260503202807 47 335 6.0 11.0 0.00 0.87 0.00 85 1009.2
20260503202307 47 323 7.0 14.0 0.00 0.87 0.00 85 1009.1
20260503201807 47 27 6.0 13.0 0.00 0.87 0.00 85 1009.0
20260503201307 47 355 5.0 10.0 0.00 0.87 0.00 85 1009.0
20260503200807 47 13 5.0 12.0 0.00 0.87 0.00 85 1009.0
20260503200307 47 336 5.0 13.0 0.00 0.87 0.00 84 1009.1
20260503195807 47 341 5.0 10.0 0.00 0.87 0.00 84 1009.1
20260503195307 47 344 5.0 11.0 0.00 0.87 0.00 84 1009.1
20260503194807 47 324 6.0 11.0 0.00 0.87 0.00 84 1009.2
20260503194307 48 22 6.0 12.0 0.00 0.87 0.00 83 1009.2
20260503193807 48 329 6.0 11.0 0.00 0.87 0.00 83 1009.2
20260503193307 48 331 6.0 16.0 0.00 0.87 0.00 82 1009.4
20260503192807 48 0 6.0 11.0 0.00 0.87 0.00 82 1009.2
20260503192307 48 323 5.0 11.0 0.00 0.91 0.00 82 1009.3
20260503191807 48 305 6.0 10.0 0.00 0.91 0.00 82 1009.4
20260503191307 48 320 7.0 14.0 0.00 0.91 0.00 82 1009.3
20260503190807 48 326 6.0 13.0 0.00 0.91 0.00 82 1009.5
20260503190307 48 322 6.0 14.0 0.00 0.91 0.00 82 1009.3
20260503185807 48 355 6.0 12.0 0.00 0.91 0.00 82 1009.4
20260503185307 48 308 6.0 16.0 0.00 0.91 0.00 81 1009.4
20260503184807 49 344 6.0 13.0 0.00 0.91 0.00 81 1009.4
20260503184307 49 9 6.0 16.0 0.00 0.91 0.00 81 1009.4
20260503183807 49 0 6.0 13.0 0.00 0.91 0.00 81 1009.4
20260503183307 48 355 6.0 13.0 0.00 0.91 0.00 81 1009.5
20260503182807 48 355 6.0 15.0 0.00 0.91 0.00 82 1009.5
20260503182307 48 10 6.0 11.0 0.00 1.22 0.00 82 1009.5
20260503181807 48 21 5.0 11.0 0.00 1.22 0.00 82 1009.6
20260503181308 48 0 6.0 10.0 0.00 1.22 0.00 82 1009.7
20260503180807 48 338 6.0 12.0 0.00 1.22 0.00 82 1009.7
20260503180307 48 327 6.0 10.0 0.00 1.22 0.00 82 1009.7
20260503175807 48 31 6.0 12.0 0.00 1.22 0.00 82 1009.8
20260503175307 48 343 6.0 13.0 0.00 1.22 0.00 82 1009.8
20260503174807 48 0 6.0 17.0 0.00 1.22 0.00 82 1009.7
20260503174307 48 346 6.0 15.0 0.00 1.22 0.00 82 1009.8
20260503173807 48 5 6.0 14.0 0.00 1.22 0.00 82 1009.8
20260503173307 48 19 6.0 11.0 0.00 1.22 0.00 81 1009.7
20260503172807 48 331 5.0 13.0 0.00 1.22 0.00 81 1009.8
20260503172307 48 30 5.0 15.0 0.00 1.22 0.00 82 1010.0
20260503171807 48 0 5.0 13.0 0.00 1.22 0.00 81 1010.0
20260503171307 48 21 6.0 10.0 0.00 1.22 0.00 81 1010.0
20260503170807 48 327 6.0 10.0 0.00 1.22 0.00 81 1010.1
20260503170307 48 323 6.0 12.0 0.00 1.22 0.00 81 1010.1
20260503150808 48 29 4.0 10.0 0.00 1.24 0.00 81 1010.5
20260503150308 48 28 4.0 9.0 0.00 1.24 0.00 81 1010.7
20260503140308 49 0 4.0 10.0 0.00 1.28 0.00 81 1011.0
20260503131308 49 350 5.0 10.0 0.00 1.29 1.29 80 1011.3
20260503130808 50 339 4.0 11.0 0.00 1.29 1.29 80 1011.3
20260503130308 50 14 4.0 8.0 0.00 1.29 1.29 80 1011.3
20260503110808 52 337 6.0 9.0 0.00 1.29 1.29 79 1011.5
20260503110308 52 303 6.0 16.0 0.00 1.29 1.29 78 1011.4
20260503090308 53 336 5.0 12.0 0.00 1.33 1.29 80 1011.0
20260503081308 54 272 5.0 8.0 0.00 1.37 1.29 78 1009.9
20260503080808 54 321 5.0 10.0 0.00 1.37 1.29 78 1009.9
20260503080308 54 316 5.0 10.0 0.00 1.37 1.29 78 1009.8
20260503072808 55 325 5.0 9.0 0.00 1.37 1.29 77 1009.6
20260503072308 55 336 5.0 11.0 0.00 1.43 1.29 77 1009.6
20260503071809 55 315 4.0 8.0 0.00 1.43 1.29 77 1009.4
20260503071308 55 355 5.0 10.0 0.00 1.43 1.29 76 1009.4
20260503070808 56 0 5.0 11.0 0.00 1.43 1.29 76 1009.4
20260503070308 56 15 6.0 12.0 0.00 1.43 1.29 76 1009.4
20260503060309 55 342 6.0 11.0 0.00 1.43 1.29 83 1009.2
20260503054809 56 340 6.0 9.0 0.00 1.43 1.29 84 1009.2
20260503054309 56 339 6.0 11.0 0.00 1.43 1.29 84 1009.3
20260503053809 56 350 6.0 12.0 0.00 1.43 1.29 84 1009.3
20260503053309 55 336 5.0 12.0 0.00 1.43 1.29 84 1009.5
20260503052809 55 336 5.0 11.0 0.00 1.43 1.29 84 1009.3
20260503052309 55 355 7.0 10.0 0.00 1.43 1.29 85 1009.4
20260503051809 55 315 7.0 12.0 0.00 1.43 1.29 84 1009.5
20260503051309 55 309 7.0 11.0 0.00 1.43 1.29 84 1009.4
20260503050809 56 328 7.0 12.0 0.00 1.43 1.29 84 1009.4
20260503050309 56 338 6.0 12.0 0.00 1.43 1.29 84 1009.4
20260503045809 55 329 5.0 10.0 0.00 1.43 1.29 85 1009.3
20260503045309 55 322 4.0 8.0 0.00 1.43 1.29 86 1009.4
20260503044809 55 350 5.0 8.0 0.00 1.43 1.29 87 1009.5
20260503044309 55 47 6.0 11.0 0.00 1.43 1.29 85 1009.5
20260503043809 55 331 6.0 13.0 0.00 1.43 1.29 85 1009.6
20260503043309 55 355 5.0 13.0 0.00 1.43 1.29 85 1009.6
20260503042809 55 338 6.0 10.0 0.00 1.43 1.29 85 1009.7
20260503042309 55 336 7.0 10.0 0.00 1.43 1.29 85 1009.7
20260503041809 55 329 7.0 13.0 0.00 1.43 1.29 83 1009.7
20260503041309 56 335 7.0 11.0 0.00 1.43 1.29 84 1009.7
20260503040809 55 312 8.0 15.0 0.00 1.43 1.29 85 1009.7
20260503040309 55 5 7.0 13.0 0.00 1.43 1.29 85 1009.7
20260503035809 55 328 6.0 13.0 0.00 1.43 1.29 86 1009.7
20260503035309 55 341 5.0 11.0 0.00 1.43 1.29 85 1009.7
20260503034809 55 297 6.0 13.0 0.00 1.43 1.29 88 1009.7
20260503034309 55 297 5.0 10.0 0.00 1.43 1.29 87 1009.7